Location: *
(2.5500°S, 65.9667°W)
Time: 18:26:24
(UTC+00:00)

S-56A Canister/Altair - Visible Passes

Search period start: 23 April 2024 00:00
Search period end: 03 May 2024 00:00
Orbit: 639 x 2488 km, 38.9° (Epoch: 22 April)

Date Brightness Start Highest point End Pass type
(mag) Time Alt. Az. Time Alt. Az. Time Alt. Az.
23 Apr 11.2 01:59:54 10° N 02:00:08 11° N 02:00:08 11° N visible
23 Apr 11.4 06:32:29 15° SSE 06:32:29 15° SSE 06:34:15 10° SSE visible
23 Apr 11.1 08:29:52 14° SSW 08:29:52 14° SSW 08:36:04 10° S visible
24 Apr 11.1 01:27:32 10° N 01:28:14 11° NNE 01:28:14 11° NNE visible
24 Apr 11.2 07:58:16 16° SSW 07:58:16 16° SSW 08:03:00 10° S visible
25 Apr 11.0 00:56:03 10° NNE 00:56:23 10° NNE 00:56:23 10° NNE visible
25 Apr 11.3 07:26:37 15° S 07:26:37 15° S 07:29:37 10° SSE visible
26 Apr 11.1 02:20:57 10° NNW 02:21:55 14° NNW 02:21:55 14° NNW visible
26 Apr 11.5 06:54:55 12° SSE 06:54:55 12° SSE 06:56:00 10° SSE visible
27 Apr 10.7 01:47:50 10° NNW 01:50:09 19° N 01:50:09 19° N visible
28 Apr 10.4 01:14:53 10° NNW 01:18:25 23° N 01:18:25 23° N visible
29 Apr 10.3 00:42:07 10° N 00:46:45 23° NNE 00:46:45 23° NNE visible
29 Apr 11.2 02:43:42 10° NW 02:44:06 12° NW 02:44:06 12° NW visible
30 Apr 10.3 00:09:38 10° N 00:15:06 19° NE 00:15:06 19° NE visible
30 Apr 10.7 02:10:16 10° NW 02:12:28 21° NW 02:12:28 21° NW visible
30 Apr 10.4 23:37:40 10° NNE 23:41:40 14° NE 23:43:30 13° ENE visible
01 May 10.1 01:36:56 10° NW 01:40:53 33° NNW 01:40:53 33° NNW visible
02 May 9.5 01:03:44 10° NNW 01:09:20 46° N 01:09:20 46° N visible
02 May 11.3 09:46:13 10° S 09:51:39 13° SSE 09:56:28 10° SE visible
